Regional Weather Roundup
Issued by NWS Burlington, VT

Home | Current Version | Previous Version | Text Only | Print | Product List | Glossary On
Versions: 1 2 3 4 5 6 7 8 9 10 11 12 13 14 15 16 17 18 19 20 21 22 23 24 25 26 27 28 29 30 31 32 33 34 35 36 37 38 39 40 41 42 43 44 45 46 47 48 49 50
000
ASUS41 KBTV 260530
RWRBTV
VERMONT REGIONAL WEATHER ROUNDUP
NATIONAL WEATHER SERVICE BURLINGTON VT
100 AM EDT SUN APR 26 2015

NOTE: "FAIR" INDICATES FEW OR NO CLOUDS BELOW 12,000 FEET WITH NO
SIGNIFICANT WEATHER AND/OR OBSTRUCTIONS TO VISIBILITY.

* THESE REPORTS ARE NOT UNDER NWS QUALITY CONTROL AND/OR DO NOT
  REPORT WEATHER SUCH AS PRECIPITATION AND FOG.

VTZ001>019-260600-
_____VERMONT_____


CITY           SKY/WX    TMP DP  RH WIND       PRES   REMARKS
BURLINGTON     CLOUDY    43  31  62 S3        29.72F
MONTPELIER     CLOUDY    36  31  82 CALM      29.74S
MORRISVILLE    CLOUDY    37  32  82 CALM      29.72F
ST. JOHNSBURY*   N/A     38  33  82 MISG      29.71R
LYNDONVILLE*   CLOUDY    36  31  82 CALM      29.72S
MIDDLEBURY*    CLOUDY    41  33  73 CALM      29.73F
RUTLAND*       CLOUDY    39  32  75 CALM      29.72F
SPRINGFIELD    CLOUDY    39  31  72 CALM      29.73F
HIGHGATE*      CLOUDY    40  33  77 CALM      29.72F
NEWPORT*       CLOUDY    36  32  85 CALM      29.71F
BENNINGTON     CLOUDY    41  32  70 CALM      29.72F
SUTTON*          N/A     34 N/A N/A MISG        N/A
GALLUP MILLS*    N/A     32 N/A N/A MISG        N/A
MT. MANSFIELD*   N/A     30 N/A N/A CALM        N/A

_____LAKE CHAMPLAIN_____


CITY           SKY/WX    TMP DP  RH WIND       PRES   REMARKS
BURTON ISLAND*   N/A     41  36  81 S1          N/A
COLCHESTER RF*   N/A     41  32  70 S6          N/A
DIAMOND ISL*     N/A     43  32  65 SW1         N/A

$$

NYZ007-026>031-035-052-083-260600-
_____NORTHERN NEW YORK_____


CITY           SKY/WX    TMP DP  RH WIND       PRES   REMARKS
PLATTSBURGH    CLOUDY    46  31  55 NW7       29.72F
SARANAC LAKE   CLOUDY    36  29  75 SW3       29.72S
MASSENA        CLOUDY    44  33  65 NW5       29.78S
OGDENSBURG*    CLOUDY    43  34  70 N6        29.78F
POTSDAM*       CLOUDY    41  34  75 W5        29.77F
STARK FALLS*     N/A     37 N/A N/A W2          N/A
WATERTOWN      CLOUDY    39  30  70 NW3       29.79F
FT DRUM        CLOUDY    39  28  64 VRB5      29.77S
ALBANY         MOCLDY    44  27  51 NW6       29.75F
GLENS FALLS    CLOUDY    46  29  51 N6        29.74S

$$
NHZ002-005-011-260600-
_____NEW HAMPSHIRE_____


CITY           SKY/WX    TMP DP  RH WIND       PRES   REMARKS
LEBANON        CLOUDY    38  31  76 S3        29.72F
KEENE          CLOUDY    39  30  70 CALM      29.72F
MT WASHINGTON  FOG       19  19 100 N36         N/A  VSB 0   WCI  -1
PLYMOUTH       CLOUDY    40  36  85 CALM      29.72S
WHITEFIELD     CLOUDY    35  33  92 CALM      29.71R

$$

_____REGIONAL QUEBEC LOCATIONS_____


CITY           SKY/WX    TMP DP  RH WIND       PRES   REMARKS
MONTREAL       PTCLDY    45  32  61 N9        29.75S
QUEBEC CITY    MOCLDY    36  34  93 W2        29.69F
SHERBROOKE     CLOUDY    34 N/A N/A W3        29.69F

_____REGIONAL ONTARIO LOCATIONS_____


CITY           SKY/WX    TMP DP  RH WIND       PRES   REMARKS
OTTAWA         PTCLDY    36  30  80 NW8       29.79S

______KEY______
VSB  - VISIBILITY IN MILES
WCI  - WIND CHILL INDEX
HX   - HEAT INDEX
$$
NNNN



USA.gov is the U.S. government's official web portal to all federal, state and local government web resources and services.